Regional Weather Roundup
Issued by NWS

Home | Current Version | Previous Version | Graphics & Text | Print | Product List | Glossary On
Versions: 1 2 3 4 5 6 7 8 9 10 11 12 13 14 15 16 17 18 19 20 21 22 23 24 25 26 27 28 29 30 31 32 33 34 35 36 37 38 39 40 41 42 43 44 45 46 47 48 49 50
000
ASUS43 KIND 021259
RWRIN

WEATHER ROUNDUP FOR INDIANA
NATIONAL WEATHER SERVICE INDIANAPOLIS IN
900 AM EDT THU JUL 02 2015

NOTE: "FAIR" INDICATES FEW OR NO CLOUDS BELOW 12,000 FEET WITH NO
SIGNIFICANT WEATHER AND/OR OBSTRUCTIONS TO VISIBILITY.

* - STATION DOES NOT REPORT WEATHER SUCH AS PRECIPITATION OR FOG.

+ - STATION NOT QUALITY CONTROLLED BY THE NATIONAL WEATHER SERVICE.
    USE DATA WITH CAUTION...ESPECIALLY DEWPOINT AND RELATIVE
    HUMIDITY OBSERVATIONS.

INZ001>003-010>013-019-020-021400-
NORTHWEST INDIANA

CITY           SKY/WX    TMP DP  RH WIND       PRES   REMARKS
GARY /AIRPORT/ PTSUNNY   63  57  82 N12       29.99R
RENSSELAER +   MOSUNNY   59  57  94 NE8       29.96F

$$

LMZ046-743>745-021400-
SOUTHERN LAKE MICHIGAN

STATION/POSITION TIME  TEMP    WIND        PRES    WAVE
                       AIR SEA DIR/SP/G            HT
                 (UTC) (F)     (DEG/KT/KT) (MB)    (FT)
BURNS HARBOR     1200   60      70/ 13/ 16 1015.6R
MICHIGAN CITY    1200   56      40/  8/  9   N/A
5NW MICH CITY    1200   59 64   80/  8/ 12   N/A     3

$$

INZ004-005-014>016-021>024-021400-
NORTH CENTRAL INDIANA

CITY           SKY/WX    TMP DP  RH WIND       PRES   REMARKS
ELKHART        SUNNY     59  55  88 NE8       29.99R
GOSHEN         SUNNY     61  55  81 NE9       29.98R
SOUTH BEND     SUNNY     61  55  81 E5        30.00R

$$

INZ006>009-017-018-025>027-021400-
NORTHEAST INDIANA

CITY           SKY/WX    TMP DP  RH WIND       PRES   REMARKS
ANGOLA *+        N/A     61  48  63 E8        29.98S
FORT WAYNE     CLOUDY    64  59  83 NE13      29.95S

$$

INZ028-029-035-036-043>045-051>053-021400-
WEST CENTRAL INDIANA

CITY           SKY/WX    TMP DP  RH WIND       PRES   REMARKS
CRAWFORDSVL +  PTSUNNY   58  53  81 NE5       29.94R
GREENCASTLE +  CLOUDY    63  52  67 NE7       29.92R
LAFAYETTE      CLOUDY    58  54  86 N6        29.94R
TERRE HAUTE    MOSUNNY   64  56  75 N7        29.92R

$$

INZ030>032-037>040-046>048-054>057-064-065-021400-
CENTRAL INDIANA

CITY           SKY/WX    TMP DP  RH WIND       PRES   REMARKS
ANDERSON       PTSUNNY   63  54  72 N6        29.93
COLUMBUS       CLOUDY    66  61  82 NE5       29.90R
GREENWOOD *+   CLOUDY    64  55  72 NE7       29.92R
INDIANAPOLIS   CLOUDY    64  55  72 NE9       29.90R
-EAGLE CREEK   CLOUDY    64  55  72 N6        29.92R
KOKOMO *+      PTSUNNY   61  55  82 E5        29.94R
MT COMFORT *+  PTSUNNY   63  63 100 N6        29.92R
SHELBYVILLE    CLOUDY    66  60  81 NE5       29.90R

$$

INZ033-034-041-042-049-050-058-059-021400-
EAST CENTRAL INDIANA

CITY           SKY/WX    TMP DP  RH WIND       PRES   REMARKS
MUNCIE         PTSUNNY   64  58  80 NE8       29.93R

$$

INZ060-061-067>069-081>083-085>088-021400-
SOUTHWEST INDIANA

CITY           SKY/WX    TMP DP  RH WIND       PRES   REMARKS
EVANSVILLE     LGT RAIN  72  69  90 SW8       29.87R
HUNTINGBURG *+ CLOUDY    72  68  88 S6        29.87R

$$

INZ062-063-066-070>080-084-089>092-021400-
SOUTH CENTRAL AND SOUTHEAST INDIANA

CITY           SKY/WX    TMP DP  RH WIND       PRES   REMARKS
BLOOMINGTON    CLOUDY    66  62  87 N6        29.90R
MADISON *+     CLOUDY    70  68  94 CALM      29.90S
SEYMOUR +      CLOUDY    72  72 100 CALM      29.88S

$$



USA.gov is the U.S. government's official web portal to all federal, state and local government web resources and services.